Location: Marcé
(47.5801°N, 0.3280°W)
Time: 08:05:01
(UTC+01:00)

Vanguard 3 - Pass Details

Date: 10 December 2021
Orbit: 508 x 3260 km, 33.3° (Epoch: 24 January)

Event Time Altitude Azimuth Distance (km) Brightness Sun altitude
Rises 00:00:28 0° 180° (S) 5,819 - -63.1°
Reaches altitude 10° 00:06:33 10° 160° (SSE) 5,328 - -63.6°
Maximum altitude 00:14:43 16° 130° (SE) 5,351 - -64.1°
Drops below altitude 10° 00:23:53 10° 101° (E) 6,152 - -64.6°
Exits shadow 00:27:22 - 93° (E) 6,590 11.7 -64.8°
Sets 00:31:52 0° 84° (E) 7,220 12.0 -64.9°
